sat.trackr.live / text

‹ back to catalog

STARLINK-3551

NORAD 51887 · 2022-022AM

PAYLOAD ACTIVE UNKNOWN

§ Identity

Operator
Country
US
Launch date
2022-03-03
Launch site
AFETR
Launch vehicle
Mass (kg)
RCS (m²)

Purposes: comms

External: N2YO · Heavens-Above · Gunter

§ Orbital elements

Epoch: 2026-05-24T22:26:17.457792Z

Period
95.44 min
Inclination
53.2137°
Eccentricity
0.0001516
Mean motion
15.08851355 rev/d
Perigee alt
538.7 km
Apogee alt
540.8 km
Semi-major
6,917.8 km
B*
-1.7808e-4
RAAN
16.8377°
Arg perigee
87.2015°
Mean anomaly
272.9151°
Rev number
23,475

§ Raw data

STARLINK-35511 51887U 22022AM  26144.93492428 -.00003122  00000+0 -17808-3 0  99912 51887  53.2137  16.8377 0001516  87.2015 272.9151 15.08851355234759

JSON: /api/v1/satellites/51887 · /tle

For live sub-satellite position, see the globe view (requires WebGL).

§ Visibility from observer

Set your observer location to see the next 7 days of passes ≥ 10°. The values pass through the URL so the page stays shareable.

No JS? Fill the form by hand. The geolocation button needs JavaScript.